sat.trackr.live / text

‹ back to catalog

STARLINK-30607

NORAD 58099 · 2023-161C

PAYLOAD ACTIVE UNKNOWN

§ Identity

Operator
Country
US
Launch date
2023-10-21
Launch site
AFWTR
Launch vehicle
Mass (kg)
RCS (m²)

Purposes: comms

External: N2YO · Heavens-Above · Gunter

§ Orbital elements

Epoch: 2026-05-25T01:16:16.137984Z

Period
94.11 min
Inclination
53.1597°
Eccentricity
0.0001191
Mean motion
15.30194140 rev/d
Perigee alt
474.4 km
Apogee alt
476.0 km
Semi-major
6,853.4 km
B*
2.4625e-5
RAAN
160.8037°
Arg perigee
82.6320°
Mean anomaly
277.4816°
Rev number
14,624

§ Raw data

STARLINK-306071 58099U 23161C   26145.05296456  .00000370  00000+0  24625-4 0  99912 58099  53.1597 160.8037 0001191  82.6320 277.4816 15.30194140146241

JSON: /api/v1/satellites/58099 · /tle

For live sub-satellite position, see the globe view (requires WebGL).

§ Visibility from observer

Set your observer location to see the next 7 days of passes ≥ 10°. The values pass through the URL so the page stays shareable.

No JS? Fill the form by hand. The geolocation button needs JavaScript.